DW3200 Weather Reports


time (UTC)temp
C
wind
direction
speed
KPH
gust
KPH
rain 1hr
cm
rain 24hr
cm
rain mn
cm
humidity
%
barometer
mb
20260905083016 5 10 0.0 0.0 0.00 0.00 0.18 91 1015.2
20260905081603 5 10 0.0 0.0 0.00 0.00 0.18 90 1015.1
20260905080057 6 10 0.0 0.0 0.00 0.00 0.18 91 1015.4
20260905074533 6 10 0.0 0.0 0.00 0.00 0.18 90 1015.1
20260905073041 6 10 0.0 0.0 0.00 0.00 0.18 90 1014.9
20260905071515 6 10 0.0 0.0 0.00 0.00 0.18 90 1015.0
20260905070014 6 10 0.0 0.0 0.00 0.00 0.18 89 1014.5
20260905064557 6 10 0.0 0.0 0.00 0.00 0.18 89 1014.7
20260905063052 6 10 0.0 0.0 0.00 0.00 0.18 89 1014.7
20260905061550 7 10 0.0 0.0 0.00 0.00 0.18 88 1014.7
20260905060033 7 10 0.0 0.0 0.00 0.00 0.18 88 1014.8
20260905054517 7 10 0.0 0.0 0.00 0.00 0.18 87 1014.2
20260905053020 8 10 0.0 0.0 0.00 0.00 0.18 87 1014.4
20260905051557 8 10 0.0 0.0 0.00 0.00 0.18 86 1014.5
20260905050057 8 10 0.0 0.0 0.00 0.00 0.18 86 1014.6
20260905044540 8 10 0.0 0.0 0.00 0.00 0.18 84 1014.7
20260905043105 9 10 0.0 0.0 0.00 0.00 0.18 83 1014.9
20260905041522 10 10 0.0 0.0 0.00 0.00 0.18 82 1014.9
20260905040026 10 10 0.0 0.0 0.00 0.00 0.18 80 1015.0
20260905034511 10 10 0.0 0.0 0.00 0.00 0.18 79 1014.8
20260905033008 11 10 0.0 0.0 0.00 0.00 0.18 77 1014.7
20260905031508 11 10 0.0 0.0 0.00 0.00 0.18 74 1014.7
20260905030008 12 10 0.0 0.0 0.00 0.00 0.18 70 1014.7
20260905024508 13 10 0.0 0.0 0.00 0.00 0.18 67 1014.5
20260905023007 14 10 0.0 0.0 0.00 0.00 0.18 64 1014.4
20260905021507 15 10 0.0 0.0 0.00 0.00 0.18 62 1014.3
20260905020006 15 10 0.0 0.0 0.00 0.00 0.18 60 1014.1
20260905014547 15 10 0.0 0.0 0.00 0.00 0.18 58 1014.3
20260905013056 16 10 0.0 0.0 0.00 0.00 0.18 56 1014.4
20260905011530 16 10 1.6 0.0 0.00 0.00 0.18 53 1014.2
20260905010031 16 10 1.6 0.0 0.00 0.00 0.18 54 1014.2
20260905004512 16 294 1.6 0.0 0.00 0.00 0.18 49 1014.1
20260905003018 16 294 1.6 0.0 0.00 0.00 0.18 49 1014.3
20260905001557 16 293 0.0 0.0 0.00 0.00 0.18 50 1014.2
20260905000056 16 293 3.2 0.0 0.00 0.00 0.18 48 1014.1
20260904234543 17 286 3.2 0.0 0.00 0.00 0.18 46 1014.0
20260904233037 16 284 0.0 0.0 0.00 0.00 0.18 49 1013.9
20260904231522 16 281 1.6 0.0 0.00 0.00 0.18 51 1013.7
20260904230022 17 280 3.2 0.0 0.00 0.00 0.18 50 1013.7
20260904224559 17 277 1.6 0.0 0.00 0.00 0.18 45 1014.0
20260904223100 17 279 0.0 0.0 0.00 0.00 0.18 43 1013.7
20260904221542 17 279 1.6 0.0 0.00 0.00 0.18 44 1013.7
20260904220105 17 279 1.6 0.0 0.00 0.00 0.18 46 1013.5
20260904214533 17 280 3.2 0.0 0.00 0.00 0.18 45 1013.7
20260904213020 16 286 3.2 0.0 0.00 0.00 0.18 45 1013.6
20260904211501 17 287 1.6 0.0 0.00 0.00 0.18 47 1013.9
20260904210200 16 287 3.2 0.0 0.00 0.00 0.18 50 1013.8
20260904204541 16 287 4.8 0.0 0.00 0.00 0.18 52 1014.0
20260904203048 16 256 3.2 0.0 0.00 0.00 0.18 50 1013.9
20260904201519 16 214 0.0 0.0 0.00 0.00 0.18 55 1014.1
20260904200019 15 215 1.6 0.0 0.00 0.00 0.18 57 1014.2
20260904194613 16 215 0.0 0.0 0.00 0.00 0.18 57 1014.2
20260904193105 15 216 0.0 0.0 0.00 0.00 0.18 59 1014.6
20260904191546 15 233 3.2 0.0 0.00 0.00 0.18 60 1014.6
20260904190046 15 265 3.2 0.0 0.00 0.00 0.18 62 1014.4
20260904184526 15 178 1.6 0.0 0.00 0.00 0.18 65 1014.6
20260904183018 14 177 1.6 0.0 0.00 0.00 0.18 65 1014.6
20260904181617 13 180 1.6 0.0 0.00 0.00 0.18 68 1014.7
20260904180121 13 180 1.6 0.0 0.00 0.00 0.18 67 1014.6
20260904174608 13 182 1.6 0.0 0.00 0.00 0.18 70 1014.7
20260904173041 12 186 1.6 0.0 0.00 0.00 0.18 74 1014.6
20260904171535 12 180 1.6 0.0 0.00 0.00 0.18 78 1014.7
20260904170015 11 194 4.8 0.0 0.00 0.00 0.18 84 1014.6
20260904164512 10 164 3.2 0.0 0.00 0.00 0.18 91 1014.5
20260904163047 9 151 1.6 0.0 0.00 0.00 0.15 93 1014.4
20260904161551 9 150 4.8 0.0 0.00 0.00 0.13 94 1014.4
20260904160032 9 101 1.6 0.0 0.00 0.00 0.13 95 1014.3
20260904154526 8 126 1.6 0.0 0.00 0.00 0.10 95 1014.1
20260904153003 8 257 0.0 0.0 0.00 0.00 0.10 95 1014.0
20260904151600 7 257 0.0 0.0 0.00 0.00 0.08 95 1014.0
20260904150041 7 257 0.0 0.0 0.00 0.00 0.08 95 1013.9
20260904144555 7 257 0.0 0.0 0.00 0.00 0.05 95 1013.7
20260904143019 7 257 0.0 0.0 0.00 0.00 0.03 95 1013.2
20260904141529 7 257 0.0 0.0 0.00 0.00 0.03 95 1012.9
20260904140059 7 257 0.0 0.0 0.00 0.00 1.65 95 1013.0
20260904134557 6 257 0.0 0.0 0.00 0.00 1.63 95 1012.8
20260904133038 6 257 0.0 0.0 0.00 0.00 1.63 95 1012.6
20260904131534 7 257 0.0 0.0 0.00 0.00 1.60 95 1012.1
20260904130020 7 257 0.0 0.0 0.00 0.00 1.57 95 1011.9
20260904124520 7 257 0.0 0.0 0.00 0.00 1.55 95 1012.2
20260904123055 7 257 0.0 0.0 0.00 0.00 1.52 95 1012.0
20260904121555 7 257 0.0 0.0 0.00 0.00 1.50 95 1011.9
20260904120048 7 257 0.0 0.0 0.00 0.00 1.45 95 1011.7
20260904114543 7 257 0.0 0.0 0.00 0.00 1.42 95 1011.7
20260904113027 7 257 0.0 0.0 0.00 0.00 1.42 95 1011.5
20260904111516 7 257 0.0 0.0 0.00 0.00 1.40 95 1011.5
20260904110100 7 257 0.0 0.0 0.00 0.00 1.37 95 1010.9
20260904104559 7 257 0.0 0.0 0.00 0.00 1.35 95 1010.7
20260904103040 7 257 0.0 0.0 0.00 0.00 1.32 95 1010.3
20260904101537 7 257 0.0 0.0 0.00 0.00 1.30 95 1010.4
20260904100022 7 257 1.6 0.0 0.00 0.00 1.27 95 1010.5
20260904094532 7 257 3.2 0.0 0.00 0.00 1.22 94 1010.0
20260904093002 7 257 0.0 0.0 0.00 0.00 1.19 94 1009.9
20260904091600 7 257 3.2 0.0 0.00 0.00 1.17 94 1009.9
20260904090044 8 265 4.8 0.0 0.00 0.00 1.14 94 1010.5
20260904084541 8 270 0.0 0.0 0.00 0.00 1.09 94 1009.9